Location: Columbus
(29.5618°N, 96.6770°W)
Time: 18:05:57
(UTC-05:00)

Iridium 59 - Visible Passes

Search period start: 27 July 2016 00:00
Search period end: 06 August 2016 00:00
Orbit: 776 x 779 km, 86.4° (Epoch: 27 July)

Date Brightness Start Highest point End Pass type
(mag) Time Alt. Az. Time Alt. Az. Time Alt. Az.
27 Jul 7.6 22:04:04 10° NW 22:07:38 19° W 22:11:12 10° SW visible
28 Jul 6.5 21:29:33 10° NNW 21:34:20 37° W 21:39:06 10° SSW visible
29 Jul 5.3 20:55:43 10° N 21:00:55 77° W 21:06:07 10° S visible
30 Jul 8.0 22:05:32 10° WNW 22:07:33 12° W 22:09:33 10° WSW visible
31 Jul 7.3 21:30:08 10° NNW 21:34:18 25° W 21:38:29 10° SW visible
01 Aug 6.1 20:55:57 10° NNW 21:00:58 49° W 21:05:58 10° SSW visible
03 Aug 7.9 21:31:05 10° NW 21:34:14 16° W 21:37:24 10° WSW visible
04 Aug 7.0 20:56:21 10° NNW 21:00:57 32° W 21:05:33 10° SSW visible
